Weather History for Copper Harbor, MI

Change the Weather History Date:

Saturday, March 22, 2014

  Actual Average Record
Temperature  
Mean Temperature 19 °F -  
Max Temperature 30 °F 34 °F 59 °F (2012)
Min Temperature 8 °F 21 °F 8 °F (2014)
Degree Days  
Heating Degree Days 46    
Moisture  
Dew Point 6 °F    
Average Humidity 73    
Maximum Humidity 92    
Minimum Humidity 59    
Precipitation  
Precipitation 0.01 in - - ()
Sea Level Pressure  
Sea Level Pressure 30.21 in    
Wind  
Wind Speed 17 mph (North)    
Max Wind Speed 28 mph    
Max Gust Speed 34 mph    
Averages and records for this station are not official NWS values.
T = Trace of Precipitation, MM = Missing Value Source: NWS Daily Summary

Daily Weather History Graph

Daily Weather History Graph

Search for Another Location

Airport:

Trip Planner

Search our weather history database for the weather conditions in past years. The results will help you decide how hot, cold, wet, or windy it might be!

Date:

Astronomy

Mar. 22, 2014 Rise Set
Actual Time 7:50 AM EDT 8:07 PM EDT
Civil Twilight 7:19 AM EDT 8:37 PM EDT
Nautical Twilight 6:43 AM EDT 9:14 PM EDT
Astronomical Twilight 6:06 AM EDT 9:51 PM EDT
Moon 1:45 AM EDT (3/22) 11:13 AM EDT (3/22)
Length of Visible Light 13h 18m
Length of Day
12h 16m
Waning Gibbous, 65% of the Moon is Illuminated
Mar 22
Waning Gibbous
Mar 23
Last Quarter
Mar 30
New
Apr 7
First Quarter
Apr 15
Full

Hourly Weather History & Observations

Time (EDT) Temp. Windchill Dew Point Humidity Pressure Visibility Wind Dir Wind Speed Gust Speed Precip Events Conditions
12:51 AM 30.0 °F 22.4 °F 28.0 °F 92% 29.88 in - North 8.1 mph - 0.01 in   Unknown
1:51 AM 28.0 °F 15.7 °F 26.1 °F 92% 29.89 in - North 17.3 mph - N/A   Unknown
2:51 AM 19.9 °F 4.8 °F 15.1 °F 81% 29.98 in - NNE 18.4 mph 28.8 mph N/A   Unknown
3:51 AM 18.0 °F 1.3 °F 12.9 °F 81% 30.01 in - NNE 20.7 mph 27.6 mph N/A   Unknown
4:51 AM 14.0 °F -5.1 °F 9.0 °F 80% 30.06 in - NNE 24.2 mph 34.5 mph N/A   Unknown
5:51 AM 12.9 °F -7.3 °F 7.0 °F 77% 30.09 in - NNE 26.5 mph 31.1 mph N/A   Unknown
6:51 AM 10.9 °F -10.3 °F 5.0 °F 77% 30.13 in - NNE 27.6 mph 33.4 mph N/A   Unknown
7:51 AM 10.9 °F -8.3 °F 5.0 °F 77% 30.17 in - North 21.9 mph 29.9 mph N/A   Unknown
8:51 AM 9.0 °F -12.6 °F 1.9 °F 73% 30.20 in - NNE 26.5 mph 32.2 mph N/A   Unknown
9:51 AM 8.1 °F -12.2 °F 1.0 °F 73% 30.23 in - NNE 21.9 mph 28.8 mph N/A   Unknown
10:51 AM 8.1 °F -12.6 °F -0.0 °F 70% 30.25 in - NNE 23.0 mph - N/A   Unknown
11:51 AM 8.1 °F -11.7 °F -0.0 °F 70% 30.27 in - NNE 20.7 mph - N/A   Unknown
12:51 PM 9.0 °F -8.5 °F 1.0 °F 70% 30.28 in - NNE 16.1 mph - N/A   Unknown
1:51 PM 10.9 °F -5.4 °F 3.0 °F 70% 30.30 in - North 15.0 mph - N/A   Unknown
2:51 PM 10.9 °F -6.5 °F 1.9 °F 67% 30.31 in - North 17.3 mph - N/A   Unknown
3:51 PM 12.0 °F -4.5 °F 3.0 °F 67% 30.31 in - North 16.1 mph - N/A   Unknown
4:51 PM 12.9 °F -3.9 °F 3.0 °F 65% 30.32 in - North 17.3 mph - N/A   Unknown
5:51 PM 14.0 °F -2.5 °F 3.9 °F 64% 30.32 in - NNW 17.3 mph - N/A   Unknown
6:51 PM 14.0 °F 2.0 °F 6.1 °F 71% 30.33 in - NNW 9.2 mph - N/A   Unknown
7:51 PM 12.9 °F 1.6 °F 6.1 °F 74% 30.33 in - NW 8.1 mph - N/A   Unknown
8:51 PM 12.0 °F 2.7 °F 5.0 °F 73% 30.35 in - WNW 5.8 mph - N/A   Unknown
9:51 PM 12.0 °F 4.1 °F 1.9 °F 64% 30.36 in - Variable 4.6 mph - N/A   Unknown
10:51 PM 12.9 °F 1.6 °F 1.0 °F 59% 30.37 in - NNW 8.1 mph - N/A   Unknown
11:51 PM 12.9 °F 1.6 °F 1.9 °F 62% 30.38 in - NNW 8.1 mph - N/A   Unknown